EHI
0 0 0 0 0 0 0 0 0 0 0 0 0 0 1 2 3 3 6 19 35 39 37 38 39 35 29 19 11 7 3 1 1 1 2 3 3 3 2 1 1 0 0 0 0 0 0 0 0
0 0 0 0 0 0 0 0 0 0 0 0 0 1 1 2 4 5 11 24 33 34 33 37 40 38 30 21 14 10 6 4 3 2 2 3 3 4 3 2 1 0 0 0 0 0 0 0 0
1 0 0 0 0 0 0 0 0 0 0 0 0 1 1 2 4 8 18 28 31 30 32 39 44 41 34 25 17 12 9 7 6 3 2 2 3 4 4 2 1 1 1 0 0 0 0 0 0
2 1 0 0 0 0 0 0 0 0 0 0 0 1 2 1 3 9 20 28 30 30 34 41 44 41 36 28 19 13 9 8 6 4 2 1 1 1 2 2 2 2 1 0 0 0 0 0 0
2 1 0 0 0 0 0 0 0 0 0 0 0 1 3 2 3 11 19 24 28 33 36 39 39 36 34 29 22 15 11 7 5 4 3 1 0 0 0 1 1 1 1 0 0 0 0 0 0
1 0 0 0 0 0 0 0 0 0 0 0 0 2 3 3 6 13 19 23 29 36 37 35 35 34 32 29 24 18 13 9 7 5 2 1 0 0 0 0 0 0 0 0 0 0 0 0 0
0 0 0 0 0 0 0 0 0 0 0 0 1 3 3 4 8 15 21 27 33 38 36 34 34 32 31 27 23 17 13 9 6 4 1 0 0 0 0 0 0 0 0 0 1 0 0 0 0
0 0 0 0 0 0 0 0 0 0 0 1 1 2 4 7 12 19 25 31 37 37 33 32 32 30 28 24 19 14 10 7 4 2 1 0 0 0 0 0 0 0 0 0 0 0 0 0 0
0 0 0 0 0 0 0 0 0 0 1 2 3 5 8 13 19 24 27 31 35 34 31 30 31 29 25 20 16 12 8 5 2 1 0 0 0 0 0 0 0 0 0 0 0 0 0 0 0
0 0 0 0 0 0 0 0 0 0 2 3 5 8 12 18 24 27 27 27 30 31 30 30 31 29 23 18 16 13 9 5 2 0 0 0 0 0 0 0 0 0 0 0 0 0 0 0 0
0 0 0 0 0 0 0 0 0 0 1 2 4 8 12 16 23 27 26 24 26 28 30 30 30 28 22 17 16 15 12 6 2 0 0 0 0 0 0 0 0 0 0 0 0 0 0 0 0
0 0 0 0 0 0 0 0 0 0 0 2 3 6 8 11 16 22 23 22 22 24 27 29 29 27 23 18 16 15 12 7 3 0 0 0 0 0 0 0 0 0 0 0 0 0 0 0 0
0 0 0 0 0 0 0 0 0 0 1 3 4 5 6 7 10 14 18 20 21 23 25 26 27 25 23 19 16 14 13 10 5 2 1 1 0 0 0 0 0 0 0 0 0 0 0 0 0
0 0 0 0 0 0 0 0 0 0 1 3 4 3 4 5 7 11 15 18 20 23 23 22 21 20 19 18 16 15 15 14 10 6 4 2 1 0 0 0 0 0 0 0 0 0 0 0 0
0 0 0 0 0 0 0 0 0 0 1 2 2 2 1 3 6 10 12 14 17 21 21 17 13 13 15 17 16 16 17 17 14 10 6 3 1 0 0 0 0 0 0 0 0 0 0 0 0
0 0 0 0 0 0 0 0 0 0 1 2 2 2 1 2 5 7 9 11 14 18 18 14 10 11 13 15 15 16 16 16 14 10 6 3 1 0 0 0 0 0 0 0 0 0 0 0 0
0 0 0 0 0 0 0 0 0 1 2 3 3 3 2 1 2 4 6 9 12 15 15 12 10 10 11 12 13 13 13 13 11 9 5 3 1 1 1 0 0 0 0 0 0 0 0 0 0
0 0 0 0 0 0 0 0 0 1 2 2 2 2 1 0 1 3 5 7 11 13 12 10 10 10 9 9 9 9 9 9 8 6 4 3 2 2 2 1 0 0 0 0 0 0 0 0 0
0 0 0 0 0 0 0 0 0 1 1 1 1 1 0 0 1 3 4 6 9 10 9 8 9 9 8 7 6 5 6 5 4 3 3 3 3 3 2 1 0 0 0 0 0 0 0 0 0
0 0 0 0 0 0 0 0 0 0 0 0 0 0 0 0 1 2 4 5 6 6 6 7 8 8 7 5 4 3 3 2 1 1 1 2 3 3 2 1 0 0 0 0 0 0 0 0 0
0 0 0 0 0 0 0 0 0 0 0 0 0 0 0 0 0 1 2 3 4 4 4 5 6 7 6 5 3 3 2 1 0 0 0 1 1 2 2 1 0 0 0 0 0 0 0 0 0
0 0 0 0 0 0 0 0 0 0 0 0 0 0 0 0 0 0 1 2 3 3 3 3 4 5 6 5 4 2 1 0 0 0 0 0 0 1 1 0 0 0 0 0 0 0 0 0 0
0 0 0 0 0 0 0 0 0 0 0 0 0 0 0 0 0 0 1 2 2 2 2 1 2 3 4 4 4 2 0 0 0 0 0 0 0 0 0 0 0 0 0 0 0 0 0 0 0
0 0 0 0 0 0 0 0 0 0 0 0 0 0 0 0 0 0 1 1 1 1 1 1 1 1 1 2 3 2 0 0 0 0 0 0 0 0 0 0 0 0 0 0 0 0 0 0 0
0 0 0 0 0 0 0 0 0 0 0 0 0 0 0 0 0 0 0 0 0 0 0 0 0 0 0 0 1 1 0 1 1 0 0 0 0 0 0 0 0 0 0 0 0 0 0 0 0
0 0 0 0 0 0 0 0 0 0 0 0 0 0 0 0 0 0 0 0 0 0 0 0 0 0 0 0 0 0 0 1 1 0 0 0 0 0 0 0 0 0 0 0 0 0 0 0 0
0 0 0 0 0 0 0 0 0 0 0 0 0 0 0 0 0 0 0 0 0 0 0 0 0 0 0 0 0 0 0 1 1 0 0 0 0 0 0 0 0 0 0 0 0 0 0 0 0
0 0 0 0 0 0 0 0 0 0 0 0 0 0 0 0 0 0 0 0 0 0 0 0 0 0 0 0 0 0 0 0 0 0 0 0 0 0 0 0 0 0 0 0 0 0 0 0 0
0 0 0 0 0 0 0 0 0 0 0 0 0 0 0 0 0 0 0 0 0 0 0 0 0 0 0 0 0 0 0 0 0 0 0 0 0 0 0 0 0 0 0 0 0 0 0 0 0
0 0 0 0 0 0 0 0 0 0 0 0 0 0 0 0 0 0 0 0 0 0 0 0 0 0 0 0 0 0 0 0 0 0 0 0 0 0 0 0 0 0 0 0 0 0 0 0 0
Wind_Speed
10 9 6 2 3 5 10 8 5 4 3 1 1 2 1 3 3 6 5 9 13 14 14 14 14 13 13 13 13 13 12 12 12 12 12 12 12 13 13 12 12 13 13 13 13 13 13 13 12
8 7 4 3 5 8 9 9 7 4 2 0 1 1 1 3 6 8 6 10 13 14 13 13 15 14 13 13 13 13 13 12 12 12 12 12 12 12 12 12 12 12 12 12 12 12 12 12 12
9 7 4 4 8 11 9 7 6 3 2 2 1 1 1 3 5 5 7 11 12 12 12 14 15 14 14 13 13 13 12 12 12 12 12 12 12 12 13 12 12 12 13 12 12 12 12 11 11
4 3 5 7 13 11 9 5 4 5 3 2 2 2 3 4 4 6 9 10 12 12 12 13 14 14 14 13 13 12 12 12 12 12 12 12 12 12 12 12 12 12 12 12 11 11 11 10 10
3 4 7 11 15 12 8 6 4 5 4 4 3 3 3 4 7 9 8 10 11 11 11 13 14 14 14 13 13 12 12 12 12 12 11 11 12 12 12 12 12 11 11 11 11 10 10 10 9
4 5 8 13 13 11 9 7 4 4 4 4 4 3 4 4 6 7 7 8 10 11 12 11 13 13 13 13 13 12 12 12 11 11 11 11 12 12 11 11 11 11 11 10 10 9 9 8 8
5 6 11 12 11 10 9 7 5 3 3 4 3 3 5 4 4 5 7 8 9 10 11 10 10 11 12 12 12 12 11 11 11 11 11 11 11 11 11 11 10 10 10 10 9 9 8 8 7
4 4 10 12 11 10 6 4 2 1 2 2 3 4 6 5 4 5 6 7 8 8 9 9 9 8 8 8 11 11 11 10 11 11 10 10 10 10 10 9 9 9 9 9 8 8 7 6 4
4 7 10 11 9 7 4 4 1 1 1 1 1 2 7 8 7 7 6 6 6 7 7 8 8 7 8 7 10 10 9 10 10 8 9 8 5 6 6 8 9 9 8 8 7 6 5 4 2
5 8 11 8 6 4 3 2 1 1 1 1 3 6 8 7 7 7 7 7 6 6 7 6 7 7 7 7 7 6 6 6 5 5 5 4 4 4 7 8 8 7 7 6 5 4 3 1 0
5 8 8 7 6 3 3 2 1 3 2 2 3 4 5 6 6 6 6 7 7 6 6 6 6 7 6 5 5 4 3 4 4 5 4 3 3 4 4 3 4 4 4 2 3 2 1 0 0
7 9 8 7 6 3 3 2 1 2 2 1 2 4 5 6 5 5 6 6 6 6 5 5 6 6 6 5 4 4 3 3 3 3 4 3 3 3 3 2 2 2 2 2 1 0 1 0 0
10 8 8 7 6 3 2 3 2 3 2 2 3 4 5 5 5 4 4 5 5 5 5 5 5 6 5 5 4 4 3 3 3 3 3 4 3 3 2 2 2 2 1 2 1 0 1 0 1
7 7 7 7 6 4 4 4 4 4 3 2 4 4 5 4 4 4 5 5 5 5 5 5 5 5 5 5 4 4 3 3 3 3 3 4 3 3 3 2 2 1 1 1 1 1 1 0 1
6 6 7 7 6 5 3 5 7 5 3 4 4 4 4 5 4 4 4 5 5 5 5 5 5 5 5 5 4 4 3 3 3 3 3 3 3 3 3 2 2 1 1 1 1 1 1 1 1
6 6 6 7 7 6 6 9 7 5 4 5 4 4 4 5 5 4 4 4 5 5 6 5 4 5 4 4 4 3 3 3 3 2 3 3 3 3 3 2 2 1 1 1 1 1 1 1 1
6 7 7 5 7 7 8 7 7 5 6 6 5 5 5 4 4 3 4 3 4 5 6 5 5 5 4 4 4 3 3 3 2 2 2 3 3 3 2 2 2 2 2 1 1 1 1 1 1
7 7 6 6 6 8 8 7 6 7 7 6 5 6 6 5 4 3 4 4 4 4 5 6 6 5 5 4 3 3 3 2 2 2 2 3 3 3 3 2 2 2 2 1 1 1 1 1 1
5 5 6 6 6 8 9 8 7 6 6 6 5 6 5 5 4 3 3 4 3 4 4 5 5 5 5 3 3 3 3 2 2 2 3 3 3 3 3 2 2 2 1 1 1 1 2 1 1
6 7 6 5 5 5 7 10 8 7 8 7 6 6 6 5 4 4 4 3 3 3 3 4 5 5 5 3 2 2 3 2 2 2 2 3 3 3 3 3 2 2 2 1 1 1 1 1 1
6 7 7 5 3 4 4 6 7 6 6 5 5 4 5 5 5 4 4 3 3 4 4 3 3 4 5 5 4 4 3 2 2 2 1 2 3 3 3 2 2 2 2 1 1 2 2 0 0
5 5 5 5 3 3 4 4 7 7 6 6 4 3 4 4 4 4 3 3 2 3 3 3 3 3 4 5 5 6 4 3 2 2 2 3 3 3 3 3 3 2 2 2 1 2 1 1 0
3 3 4 5 3 3 5 4 5 6 6 6 4 3 3 3 3 3 3 3 2 2 2 2 2 2 4 5 6 5 4 3 3 3 4 3 2 3 3 3 3 2 2 2 2 1 1 1 0
2 2 3 3 2 4 6 4 4 5 6 6 4 3 3 3 3 3 2 3 2 2 2 2 2 1 2 4 5 5 6 5 5 5 4 3 2 2 2 3 3 2 2 2 2 1 1 1 1
1 2 1 1 2 4 3 3 4 2 3 4 5 4 4 4 4 3 3 3 3 3 2 2 3 2 1 2 4 5 6 6 6 5 5 4 3 2 3 2 2 2 2 2 2 1 1 1 1
3 2 1 2 2 2 2 5 2 1 2 3 4 4 3 3 3 3 3 3 3 3 3 2 2 2 2 2 2 3 5 4 3 4 4 4 3 3 3 3 3 3 2 2 1 1 1 1 1
1 2 2 1 2 1 3 2 0 3 2 2 3 3 3 2 3 3 3 2 2 3 3 3 2 1 2 2 3 3 4 4 3 3 3 3 3 3 4 3 3 3 3 2 2 1 1 1 1
0 1 1 0 1 2 3 4 3 2 2 2 3 3 2 2 2 2 2 2 2 2 2 2 3 3 2 2 2 3 3 3 3 3 3 3 4 4 4 3 3 3 3 2 2 1 1 1 1
0 0 1 1 2 2 2 2 1 1 2 3 2 2 2 2 1 1 1 1 1 2 2 2 2 3 3 2 2 3 3 3 3 3 3 4 4 4 4 4 4 3 3 3 2 2 2 2 1
1 1 2 2 2 2 1 3 2 3 1 3 3 2 2 2 1 1 1 1 1 1 1 1 2 3 2 3 2 3 3 3 3 2 2 3 4 3 3 3 3 3 3 2 2 2 2 2 2
Wind_Direction
295 281 261 247 232 228 234 234 233 224 230 234 356 358 30 22 56 108 137 125 121 127 132 135 131 129 129 127 124 122 120 116 113 111 109 109 107 105 103 102 98 95 93 90 88 86 84 82 79
284 277 256 232 228 226 227 222 227 215 180 60 353 38 76 65 74 105 121 120 125 128 134 137 133 130 129 128 126 123 121 118 115 111 109 109 108 105 102 100 97 95 94 92 89 88 86 83 80
269 262 242 226 229 228 224 199 199 193 162 169 188 358 54 83 86 102 119 124 124 128 132 133 133 131 130 128 126 123 120 118 115 112 110 109 107 104 101 99 96 96 94 94 92 90 88 85 82
254 234 239 235 232 236 238 216 167 185 172 162 162 117 76 57 79 107 118 123 125 125 126 132 134 132 131 130 127 125 123 121 118 115 113 110 107 104 101 98 97 96 96 96 94 92 89 85 81
239 228 224 230 234 237 238 239 208 196 182 174 185 141 94 62 85 109 121 126 128 127 127 135 135 135 134 132 130 128 126 123 122 120 117 114 110 105 102 99 98 97 99 99 97 94 90 85 80
227 227 225 224 228 233 237 231 233 216 188 178 185 164 112 90 96 120 123 124 125 125 126 134 134 134 135 134 132 131 129 127 125 122 120 116 113 109 106 102 100 98 98 99 97 93 91 86 79
235 228 235 232 227 226 231 231 218 212 201 195 179 152 129 104 104 120 119 120 121 124 129 136 137 134 134 134 133 131 129 128 126 123 120 115 114 113 110 106 104 102 99 96 94 93 92 89 83
250 252 239 236 230 227 228 235 223 226 238 197 158 158 152 146 128 120 114 110 114 122 130 137 140 139 137 134 132 130 128 126 125 122 119 117 117 117 113 107 105 105 101 98 96 93 93 93 88
249 236 229 228 231 232 228 231 238 14 342 358 62 93 130 132 129 117 108 104 113 122 129 138 144 143 140 139 134 130 128 127 124 124 128 129 132 127 115 108 106 107 105 103 101 99 97 101 106
225 231 229 239 249 250 244 227 170 71 352 321 60 75 103 120 129 131 132 133 130 130 134 140 143 143 142 142 138 138 138 140 142 143 147 148 127 115 114 111 113 112 112 113 116 122 122 123 174
222 237 240 257 270 276 276 239 138 167 223 211 127 112 118 135 142 146 149 145 148 143 136 142 142 141 139 135 138 137 139 146 145 148 147 126 114 116 115 120 119 124 130 128 142 162 190 135 84
225 244 246 254 279 273 278 266 226 203 232 236 158 148 152 157 161 152 149 146 141 137 134 135 137 137 137 133 132 135 136 135 132 137 130 121 115 117 126 130 139 142 140 141 155 189 131 105 82
225 236 242 245 258 264 270 252 247 244 236 223 153 155 161 161 157 146 140 134 131 130 132 135 133 134 133 129 133 131 130 129 130 123 126 122 122 126 124 124 124 125 122 136 157 124 92 65 50
221 229 237 240 244 246 239 254 239 233 209 167 149 162 165 163 165 151 148 142 136 133 131 127 125 129 131 129 130 125 122 124 123 128 128 121 122 129 125 116 116 117 113 120 116 128 106 58 66
223 227 237 231 221 227 233 251 235 216 200 190 180 175 171 174 175 163 156 150 142 139 131 126 130 127 126 126 128 123 118 119 122 125 124 122 122 125 125 123 119 113 108 99 79 51 55 43 52
216 217 222 227 216 214 209 234 231 202 196 196 190 182 181 183 176 166 154 144 138 137 134 131 131 127 127 120 119 119 117 114 115 117 122 125 123 122 121 122 124 110 100 95 95 70 63 39 33
200 209 215 225 209 206 210 227 222 211 200 206 197 194 187 182 171 163 153 140 142 140 138 136 129 127 128 123 120 119 113 109 115 115 123 127 125 122 119 120 118 105 91 90 94 77 79 61 34
199 209 212 214 205 210 216 225 217 213 207 209 201 197 188 180 175 162 148 141 143 139 132 137 130 127 124 119 114 112 103 100 105 114 116 117 118 117 111 108 105 104 99 82 89 104 80 79 55
222 220 228 236 218 212 214 225 224 212 208 212 209 197 188 178 162 149 132 125 135 136 134 141 135 133 125 123 129 130 131 124 112 114 114 112 111 112 110 106 105 97 99 113 112 104 96 67 55
223 229 241 244 210 204 214 231 230 217 210 207 204 192 181 162 151 152 137 130 131 134 134 142 142 142 137 135 135 129 128 130 123 112 110 112 112 110 110 111 110 104 93 78 61 80 81 63 73
229 228 226 236 245 209 203 237 222 212 206 203 200 187 165 159 157 156 147 138 143 149 148 148 150 149 144 134 122 112 103 104 103 120 129 116 111 112 111 114 106 99 100 102 73 71 76 120 333
227 222 230 228 217 221 194 226 215 207 200 198 187 172 164 162 153 148 142 130 148 150 140 147 159 152 147 145 145 146 146 154 164 151 134 120 119 121 115 115 112 114 112 116 109 83 71 103 191
218 232 232 229 231 260 224 224 220 194 193 195 184 173 155 141 136 135 135 132 112 106 118 132 147 150 158 157 154 152 150 144 135 131 128 123 114 115 122 126 124 126 122 120 108 88 81 79 82
218 210 240 225 194 235 221 207 222 201 200 185 176 162 153 152 142 136 124 119 111 105 106 125 126 132 159 162 159 156 152 147 143 145 143 137 129 121 124 127 125 126 122 126 129 117 107 96 73
237 161 157 183 207 234 197 209 238 205 172 166 174 169 164 155 149 149 141 133 136 132 135 137 140 146 163 166 165 159 153 154 158 159 155 149 148 145 152 134 128 127 123 123 120 121 131 127 130
235 202 184 202 215 264 198 215 239 222 115 121 139 146 147 149 145 146 143 144 153 147 146 143 138 145 161 158 152 152 149 149 152 154 151 157 161 156 155 145 140 139 131 124 120 126 134 122 120
218 218 270 289 280 258 220 202 149 9 62 105 124 120 134 137 141 147 139 136 153 148 153 145 140 137 152 150 139 134 135 138 143 140 147 152 148 143 147 146 143 145 138 136 135 141 150 135 130
321 282 332 267 260 253 238 225 217 224 220 149 145 147 130 112 113 117 121 143 157 148 145 137 151 150 141 127 129 126 129 132 140 139 150 147 143 142 149 147 149 151 149 150 155 156 154 142 188
334 239 277 258 247 248 240 255 5 188 165 153 151 135 133 121 114 106 100 128 125 122 127 139 151 137 130 118 115 120 131 136 143 149 155 150 147 150 155 157 160 163 166 167 168 170 174 180 205
309 251 195 198 261 256 257 275 356 22 71 108 112 102 108 105 90 90 110 110 100 95 99 143 146 139 139 135 131 138 142 141 143 148 149 147 149 153 155 157 162 169 171 173 179 185 189 187 198